This is the latest recevied weather packets stored in our database for station/object KK6MIG-13. If no packets are shown the sender has not sent any weather packets the latest 10 day(s).
| Time | Temp. | Humidity | Pressure | Rain* | Wind** | Luminosity | Snow |
|---|---|---|---|---|---|---|---|
| 1777330728 | 14.44° C | 42% | 1016.3 hPa | 0 mm | - | 271 W/m² | - |
| 1777330668 | 14.44° C | 43% | 1016.3 hPa | 0 mm | - | 779 W/m² | - |
| 1777330604 | 14.44° C | 43% | 1016.4 hPa | 0 mm | - | 784 W/m² | - |
| 1777330545 | 14.44° C | 42% | 1016.4 hPa | 0 mm | - | 441 W/m² | - |
| 1777330493 | 14.44° C | 42% | 1016.4 hPa | 0 mm | - | 889 W/m² | - |
| 1777330489 | 14.44° C | 43% | 1016.4 hPa | 0 mm | - | 441 W/m² | - |
| 1777330364 | 14.44° C | 41% | 1016.4 hPa | 0 mm | - | 613 W/m² | - |
| 1777330304 | 14.44° C | 42% | 1016.4 hPa | 0 mm | - | 613 W/m² | - |
| 1777330244 | 14.44° C | 43% | 1016.4 hPa | 0 mm | - | 613 W/m² | - |
| 1777330184 | 14.44° C | 42% | 1016.4 hPa | 0 mm | - | 830 W/m² | - |
| 1777330125 | 14.44° C | 43% | 1016.4 hPa | 0 mm | - | 830 W/m² | - |
| 1777330065 | 14.44° C | 44% | 1016.4 hPa | 0 mm | - | 847 W/m² | - |
| 1777330004 | 14.44° C | 43% | 1016.4 hPa | 0 mm | - | 868 W/m² | - |
| 1777329944 | 14.44° C | 45% | 1016.4 hPa | 0 mm | - | 911 W/m² | - |
| 1777329885 | 14.44° C | 47% | 1016.4 hPa | 0 mm | - | 911 W/m² | - |
| 1777329825 | 14.44° C | 45% | 1016.4 hPa | 0 mm | - | 911 W/m² | - |
| 1777329764 | 14.44° C | 44% | 1016.4 hPa | 0 mm | - | 911 W/m² | - |
| 1777329704 | 14.44° C | 47% | 1016.4 hPa | 0 mm | - | 911 W/m² | - |
| 1777329644 | 14.44° C | 46% | 1016.4 hPa | 0 mm | - | 803 W/m² | - |
| 1777329578 | 15° C | 47% | 1016.4 hPa | 0 mm | - | 803 W/m² | - |
| 1777329518 | 15° C | 47% | 1016.4 hPa | 0 mm | - | 817 W/m² | - |
| 1777329458 | 15° C | 47% | 1016.4 hPa | 0 mm | - | 810 W/m² | - |
| 1777329398 | 15° C | 44% | 1016.4 hPa | 0 mm | - | 823 W/m² | - |
| 1777329338 | 15° C | 44% | 1016.4 hPa | 0 mm | - | 810 W/m² | - |
| 1777329281 | 14.44° C | 47% | 1016.4 hPa | 0 mm | - | 766 W/m² | - |
* Rain latest hour (hover to see other rain measurements)
** Current wind speed in m/s (hover to see current wind gust speed)